Theta_e
325 327 328 326 327 326 324 323 324 322 323 324 323 322 322 321 320 319 318 319 320 321 322 323 326 329 332 333 332 332 331 333 333 332 332 331 331 331 331 330 330 329 328 327
326 326 325 323 323 325 326 327 325 322 324 325 324 325 322 321 320 319 319 318 316 318 318 320 322 326 330 332 332 332 332 333 333 333 332 331 331 331 331 330 330 329 329 328
325 321 321 324 324 325 324 326 324 324 323 324 326 326 324 321 320 320 320 320 320 317 317 315 317 321 327 330 331 331 332 332 333 333 332 331 331 331 331 330 329 329 329 328
325 320 323 324 324 323 324 321 322 324 324 326 324 327 322 319 318 317 319 320 320 320 319 318 316 317 320 327 329 330 331 331 332 333 332 331 331 331 331 331 330 329 329 329
324 323 323 324 323 322 323 320 321 323 325 325 323 323 319 318 319 318 316 317 318 319 319 318 316 319 320 320 326 328 330 331 332 332 332 332 331 331 331 331 330 329 329 329
319 319 320 322 322 321 321 322 323 325 324 327 322 323 320 318 318 317 317 315 315 313 312 313 315 315 317 318 320 325 328 329 331 331 332 332 332 332 331 330 329 329 329 328
318 317 321 321 323 322 323 325 327 327 328 324 320 323 320 317 317 316 317 314 312 310 310 310 310 311 313 314 316 318 322 326 329 330 331 331 332 332 331 330 329 329 329 328
322 322 322 320 322 324 325 324 324 326 326 321 317 324 321 317 316 316 315 313 310 309 309 309 309 311 312 313 313 313 316 319 322 327 329 331 331 331 331 331 330 329 329 329
319 320 319 320 321 321 324 325 319 318 306 315 317 317 316 316 315 314 313 310 309 309 309 310 311 311 312 312 312 312 312 312 316 319 321 328 330 331 332 331 331 330 329 329
316 322 317 321 321 321 322 320 324 323 323 320 316 317 316 317 315 313 312 310 310 308 309 309 309 310 311 312 312 312 312 311 311 312 316 319 322 326 330 331 331 331 330 330
315 318 318 315 323 323 323 324 323 322 320 320 317 315 311 313 313 313 311 309 309 308 309 309 310 311 310 310 311 312 311 311 311 310 310 314 318 322 324 328 331 331 331 331
316 316 316 319 314 313 318 322 322 325 323 318 316 317 312 312 311 311 310 310 309 309 310 310 311 309 308 309 310 310 311 311 312 311 310 310 311 315 320 323 327 330 331 331
315 318 314 318 319 316 314 315 315 320 317 319 317 315 310 311 312 310 312 312 311 313 313 310 308 305 306 308 308 309 309 309 310 311 310 310 309 310 315 319 322 324 327 329
314 314 313 316 318 320 320 317 314 314 321 322 321 319 316 313 312 311 312 312 311 311 309 306 304 303 305 306 307 307 307 308 308 309 309 309 310 309 309 312 319 322 324 326
316 317 316 314 314 314 315 316 319 318 319 320 318 318 316 314 311 311 312 312 308 305 304 304 304 303 304 304 304 305 305 306 306 305 306 307 308 308 308 308 311 318 323 324
314 307 313 310 314 313 314 312 314 318 318 317 316 315 311 310 310 310 310 308 305 305 305 303 302 302 301 301 302 303 303 303 302 302 303 304 304 304 306 306 307 312 318 322
310 306 300 300 309 310 311 312 311 311 313 315 315 314 311 310 309 303 303 304 303 302 301 300 300 299 298 299 299 299 299 299 299 299 300 300 301 301 302 304 304 305 310 314
307 304 298 303 297 304 305 306 310 310 310 309 309 310 308 308 303 299 299 299 299 299 298 298 297 295 295 295 296 296 294 295 296 297 298 298 298 298 299 300 302 303 304 306
306 304 303 310 297 301 304 305 307 309 304 300 304 300 299 302 301 296 295 295 295 295 294 294 292 292 290 292 293 291 291 292 293 294 295 295 295 296 296 297 298 301 301 301
307 308 303 296 299 300 302 303 303 304 305 295 295 294 294 299 303 300 292 290 290 289 290 288 288 287 289 290 288 288 289 289 291 291 292 292 293 294 294 295 296 298 299 299
308 308 305 294 293 298 301 302 304 302 301 291 290 288 289 293 290 289 288 287 286 286 285 285 284 285 287 284 285 286 287 287 288 289 288 286 289 291 293 294 294 296 297 298
304 304 304 300 304 305 290 298 304 291 287 285 284 283 283 283 284 284 283 283 283 282 282 282 283 283 281 282 282 282 284 284 285 281 281 283 287 289 291 292 292 293 294 295
302 302 300 301 300 287 284 283 283 284 282 281 280 279 279 280 279 279 279 279 279 279 280 280 279 278 279 279 279 281 281 280 277 277 278 282 286 287 289 291 291 292 293 294
301 299 301 299 290 284 282 280 280 279 278 277 277 277 276 277 276 276 276 277 277 277 276 276 276 276 275 276 277 276 276 274 274 274 278 281 281 284 288 290 291 292 292 294
290 294 297 286 285 283 280 278 276 276 275 274 274 274 274 274 274 274 275 274 273 273 273 272 273 273 273 273 273 272 271 271 272 272 273 276 280 283 284 286 290 291 292 293
280 285 295 295 280 281 281 276 273 274 273 272 272 272 272 272 273 272 271 271 270 270 271 270 270 270 270 270 270 269 269 269 268 269 272 272 273 276 279 284 288 290 292 292
Wind_Speed
6 6 16 16 13 4 5 3 3 1 4 10 6 8 8 8 8 9 9 9 9 10 14 15 32 36 36 36 35 34 36 38 37 38 37 36 37 35 35 35 36 35 34 33
6 19 17 3 9 9 5 5 5 6 3 2 8 20 16 13 11 9 8 9 9 9 9 17 17 32 37 41 41 38 37 40 44 41 41 35 31 34 37 37 37 35 36 36
16 13 11 13 9 14 12 18 13 8 3 1 8 19 16 13 11 14 17 18 14 12 13 10 18 30 37 36 41 41 41 41 43 42 34 31 28 30 30 37 39 41 38 38
14 16 14 12 15 14 17 15 11 9 4 4 4 8 7 6 13 14 15 18 20 19 18 15 11 15 23 36 43 43 42 42 42 41 34 34 33 31 37 36 34 36 42 42
11 14 17 16 22 18 11 11 14 7 6 1 6 3 7 7 7 17 10 12 13 15 16 14 11 22 27 26 37 41 42 43 41 40 39 35 33 34 32 33 33 38 41 46
11 8 17 18 10 22 6 8 7 4 5 7 12 9 8 7 9 4 4 7 6 8 8 7 8 10 11 7 8 30 31 38 40 39 43 41 38 36 30 31 33 34 36 39
14 17 3 10 9 17 7 9 5 5 6 6 7 9 17 9 6 4 6 8 8 8 8 8 9 13 14 11 7 5 13 28 35 39 39 40 40 35 36 34 34 31 32 33
7 7 13 9 10 11 18 12 5 6 5 5 9 8 7 11 11 7 7 8 9 9 8 8 7 11 13 15 14 10 8 14 21 31 37 40 39 36 36 35 34 32 34 34
6 5 4 3 6 13 13 12 5 5 2 2 5 7 9 10 5 6 9 9 7 8 7 5 5 5 6 9 12 13 15 15 18 22 27 34 37 36 34 35 33 34 35 36
5 3 3 11 1 2 9 10 6 3 6 5 5 5 5 4 7 8 10 9 6 6 6 3 4 5 8 13 13 13 12 15 17 17 21 27 32 35 38 36 35 34 36 37
10 4 1 4 6 15 6 10 7 6 3 7 3 5 5 9 10 11 9 9 9 7 4 4 4 8 15 17 18 16 15 18 20 20 18 19 23 28 33 38 39 42 42 40
10 4 5 5 6 4 8 6 7 9 8 3 3 4 5 9 10 7 7 7 5 4 1 5 6 11 17 19 20 21 21 21 22 21 20 20 22 25 27 31 36 39 40 41
11 5 3 2 3 8 5 3 6 3 3 4 4 5 1 9 6 7 9 5 5 5 3 4 6 9 16 21 25 30 31 32 31 27 22 23 22 23 27 31 33 34 38 40
11 5 5 10 4 4 3 11 15 5 1 4 4 3 5 3 7 5 5 4 5 2 3 3 5 11 21 26 28 30 32 33 36 35 28 26 27 27 26 28 31 34 36 38
7 7 3 3 8 5 6 5 9 9 8 2 8 10 15 14 6 4 4 1 4 7 9 11 11 10 19 23 25 27 28 32 37 36 33 31 32 30 30 29 30 31 33 36
6 4 5 2 4 1 3 6 8 15 14 14 13 18 7 3 4 7 9 9 10 13 13 13 13 16 19 22 25 26 27 29 34 32 33 35 35 36 35 32 32 31 32 33
7 5 3 4 1 5 3 16 12 4 4 12 10 14 6 5 6 10 10 11 12 11 11 12 11 16 21 24 25 26 29 31 32 33 35 36 36 38 37 35 33 33 34 35
5 5 3 3 4 1 8 3 13 15 5 6 8 13 7 1 13 12 11 11 10 11 12 13 19 24 25 27 25 28 30 28 28 29 33 38 36 36 41 40 37 34 33 34
4 5 2 4 2 6 9 2 5 6 2 10 5 11 11 7 9 8 12 11 9 10 13 15 20 23 29 26 28 31 30 28 30 28 29 33 37 37 36 36 37 38 34 29
4 5 4 2 5 8 5 5 4 5 2 9 10 11 12 10 2 1 12 11 11 15 15 20 22 25 23 27 33 32 28 29 30 33 35 35 36 36 35 35 36 37 36 35
4 3 6 4 2 6 7 8 4 6 2 6 9 10 10 4 4 10 15 16 19 19 23 25 25 24 24 32 32 32 31 28 32 34 35 39 36 35 36 37 37 36 35 32
6 6 4 3 2 6 9 4 3 2 9 8 8 9 8 8 8 9 11 14 19 24 28 27 27 27 30 28 30 33 29 33 32 40 42 39 36 34 34 34 36 29 26 26
2 6 5 5 3 6 14 16 9 9 8 6 8 10 11 13 12 13 12 12 18 23 25 26 27 32 27 28 27 30 34 35 43 41 40 38 35 34 33 31 30 27 24 22
1 1 3 6 4 8 10 11 10 9 8 6 8 9 11 12 14 14 14 13 18 21 24 26 29 31 33 28 27 31 33 40 38 38 36 34 37 37 33 30 27 26 24 24
0 2 5 6 6 8 8 10 7 7 8 9 11 11 12 14 14 14 15 18 22 24 26 27 26 28 33 35 34 34 37 35 36 37 35 34 31 32 34 33 32 31 32 29
2 3 3 3 7 2 6 7 8 8 10 10 11 13 16 16 15 21 17 22 23 26 28 27 27 28 31 32 33 36 35 35 33 35 33 33 33 33 31 32 34 31 35 36
Wind_Direction
185 189 218 205 200 213 130 131 197 266 324 339 344 299 285 276 273 281 272 252 242 246 254 243 226 219 214 213 219 224 219 221 217 215 216 221 223 224 225 227 230 229 232 234
188 222 222 113 185 183 208 187 234 303 268 1 329 308 301 282 272 250 258 272 253 262 252 254 234 219 212 212 216 218 222 220 220 215 220 220 221 225 226 229 233 238 236 234
210 230 165 187 198 208 216 225 220 240 11 196 289 278 258 261 251 260 251 250 248 238 241 237 238 220 216 209 212 214 219 219 219 218 215 217 223 229 230 228 231 231 236 236
219 222 180 186 197 183 223 216 211 201 162 232 157 291 240 247 259 256 262 247 247 248 241 238 233 243 236 221 219 220 219 220 222 217 211 210 212 218 225 230 231 229 231 233
203 193 200 198 204 179 225 156 189 168 178 259 204 246 278 232 256 254 249 239 244 239 237 233 226 242 251 243 228 227 222 220 220 216 213 213 217 222 226 226 228 231 230 232
273 310 194 205 183 179 143 137 166 169 215 217 220 194 264 206 224 298 305 79 90 83 67 73 60 47 45 36 253 234 226 225 225 220 222 216 219 222 222 223 220 224 227 229
217 245 290 161 153 183 202 153 181 206 205 229 178 179 250 283 263 194 167 111 101 93 74 59 38 28 30 26 15 333 257 239 233 227 224 224 225 225 225 224 224 224 226 226
205 192 198 177 196 190 194 201 160 198 200 235 133 222 253 238 259 156 125 126 111 83 67 51 39 30 22 13 5 345 297 263 255 245 238 234 232 230 231 231 229 228 228 229
186 233 281 241 194 157 182 209 215 104 51 61 208 270 302 269 173 119 106 89 93 88 72 68 32 29 1 348 354 347 340 315 288 271 259 247 243 236 234 236 235 233 234 233
174 310 339 208 342 264 191 158 193 186 183 219 258 252 224 94 98 112 110 114 123 104 71 339 303 322 346 347 325 321 331 332 329 306 278 266 258 254 244 237 235 234 236 237
154 189 118 62 213 223 211 197 205 170 166 206 174 258 249 190 144 127 130 134 144 130 163 271 303 347 5 3 359 344 326 327 334 337 316 282 270 264 258 248 240 238 239 237
180 175 202 190 200 268 329 201 239 193 186 236 159 222 113 131 144 131 101 114 129 137 178 290 320 346 360 1 359 353 344 333 334 327 328 315 290 276 270 262 254 245 240 242
156 189 149 212 142 175 192 288 334 161 65 196 140 230 347 100 108 104 109 125 162 179 210 314 345 346 355 6 9 2 356 352 346 329 316 321 315 299 285 276 269 263 256 250
149 173 202 225 154 135 174 203 202 281 67 165 227 4 285 130 99 97 123 183 203 235 277 302 1 5 17 9 5 359 352 353 353 349 331 314 322 319 304 291 281 274 266 259
162 201 187 133 133 143 145 158 194 196 196 182 213 211 242 289 84 132 184 14 33 4 11 30 37 24 10 2 354 352 349 349 348 345 341 334 325 319 315 302 293 281 275 268
171 220 160 273 128 184 156 218 199 203 228 233 252 265 171 102 20 12 354 9 40 45 33 25 17 14 4 354 349 346 347 345 344 339 335 336 337 333 320 310 305 292 279 271
143 127 94 235 263 140 349 223 219 221 203 216 221 254 78 47 57 52 55 43 42 27 19 14 7 356 349 346 343 342 337 334 336 337 337 338 339 336 331 324 309 299 287 278
121 101 79 140 34 10 240 302 206 215 244 336 313 296 46 292 95 78 43 44 25 15 9 357 353 344 342 336 338 335 333 332 329 330 334 335 335 329 329 325 315 307 300 283
88 113 96 146 181 299 299 264 145 155 122 6 353 26 6 348 112 77 35 28 12 5 348 352 338 333 326 330 335 333 330 332 331 331 330 328 327 323 321 316 312 310 301 285
50 63 119 118 158 207 253 293 236 130 211 15 34 31 10 341 102 74 3 0 355 346 343 336 333 327 327 334 333 330 329 331 328 327 324 322 319 314 312 311 308 305 299 290
122 129 168 189 185 282 250 278 323 114 196 41 43 30 21 42 20 322 341 337 336 334 335 334 331 328 330 331 329 325 323 324 320 319 320 317 312 307 308 308 308 304 294 287
160 151 182 129 141 255 13 326 171 70 67 52 35 17 355 333 322 327 321 321 327 329 332 333 328 326 325 326 328 318 316 320 321 319 315 314 311 307 306 305 307 299 286 274
170 178 172 165 180 75 44 84 65 54 75 34 14 352 345 334 333 330 326 324 325 324 325 328 324 316 320 323 321 315 317 322 320 315 312 309 307 308 306 302 299 295 284 268
144 116 112 130 83 117 92 71 74 62 65 29 10 350 342 331 331 329 329 330 330 329 323 322 321 316 314 321 319 315 316 316 313 309 309 309 308 304 302 299 292 284 278 271
184 350 129 87 118 123 94 59 55 46 32 17 1 353 346 339 333 330 333 331 329 325 325 322 319 315 313 318 318 318 315 318 314 311 308 306 305 304 302 295 288 279 272 266
358 146 167 174 136 91 108 75 38 28 18 11 357 349 345 341 336 336 329 329 326 325 324 324 321 317 315 315 314 315 318 317 313 308 308 306 304 302 297 293 291 279 271 270